Location: Unspecified
(0.0000°N, 0.0000°E)
Time: 10:21:34
(UTC+00:00)

Vanguard 3 - Pass Details

Date: 30 September 2023
Orbit: 507 x 3241 km, 33.3° (Epoch: 06 December)

Event Time Altitude Azimuth Distance (km) Brightness Sun altitude
Rises 10:28:47 0° 216° (SW) 5,846 11.4 69.5°
Reaches altitude 10° 10:33:22 10° 204° (SSW) 5,228 11.3 70.6°
Maximum altitude 10:46:34 27° 151° (SSE) 4,669 11.6 73.9°
Drops below altitude 10° 11:01:51 10° 100° (E) 6,138 12.0 77.6°
Sets 11:07:45 0° 89° (E) 7,010 12.1 79.1°
